Year,Month,Day,Hour,Minute,Value (Times are PST for temperature in C)
2012,07,13,07,17,14.80
2012,07,13,07,18,14.80
2012,07,13,07,19,14.80
2012,07,13,07,20,14.90
2012,07,13,07,21,14.90
2012,07,13,07,22,14.90
2012,07,13,07,23,14.90
2012,07,13,07,24,15.00
2012,07,13,07,25,15.00
2012,07,13,07,26,15.00
2012,07,13,07,27,15.10
2012,07,13,07,28,15.10
2012,07,13,07,29,15.20
2012,07,13,07,30,15.20
2012,07,13,07,31,15.30
2012,07,13,07,32,15.30
2012,07,13,07,33,15.40
2012,07,13,07,34,15.50
2012,07,13,07,35,15.60
2012,07,13,07,36,15.70
2012,07,13,07,37,15.70
2012,07,13,07,38,15.80
2012,07,13,07,39,15.80
2012,07,13,07,40,15.80
2012,07,13,07,41,15.80
2012,07,13,07,42,15.80
2012,07,13,07,43,15.70
2012,07,13,07,44,15.70
2012,07,13,07,45,15.70
2012,07,13,07,46,15.70
2012,07,13,07,47,15.70
2012,07,13,07,48,15.60
2012,07,13,07,49,15.60
2012,07,13,07,50,15.60
2012,07,13,07,51,15.60
2012,07,13,07,52,15.70
2012,07,13,07,53,15.70
2012,07,13,07,54,15.70
2012,07,13,07,55,15.80
2012,07,13,07,56,15.90
2012,07,13,07,57,16.00
2012,07,13,07,58,16.00
2012,07,13,07,59,16.10
2012,07,13,08,00,16.10
2012,07,13,08,01,16.10
2012,07,13,08,02,16.10
2012,07,13,08,03,16.10
2012,07,13,08,04,16.20
2012,07,13,08,05,16.20
2012,07,13,08,06,16.20
2012,07,13,08,07,16.30
2012,07,13,08,08,16.30
2012,07,13,08,09,16.40
2012,07,13,08,10,16.50
2012,07,13,08,11,16.50
2012,07,13,08,12,16.60
2012,07,13,08,13,16.70
2012,07,13,08,14,16.80
2012,07,13,08,15,16.90
2012,07,13,08,16,16.90
2012,07,13,08,17,16.90
2012,07,13,08,18,16.80
2012,07,13,08,19,16.80
2012,07,13,08,20,16.70
2012,07,13,08,21,16.60
2012,07,13,08,22,16.60
2012,07,13,08,23,16.70
2012,07,13,08,24,16.70
2012,07,13,08,25,16.70
2012,07,13,08,26,16.70
2012,07,13,08,27,16.70
2012,07,13,08,28,16.70
2012,07,13,08,29,16.70
2012,07,13,08,30,16.80
2012,07,13,08,31,16.80
2012,07,13,08,32,16.90
2012,07,13,08,33,16.90
2012,07,13,08,34,17.00
2012,07,13,08,35,17.00
2012,07,13,08,36,17.10
2012,07,13,08,37,17.10
2012,07,13,08,38,17.10
2012,07,13,08,39,17.20
2012,07,13,08,40,17.30
2012,07,13,08,41,17.30
2012,07,13,08,42,17.30
2012,07,13,08,43,17.30
2012,07,13,08,44,17.30
2012,07,13,08,45,17.30
2012,07,13,08,46,17.30
2012,07,13,08,47,17.40
2012,07,13,08,48,17.40
2012,07,13,08,49,17.50
2012,07,13,08,50,17.50
2012,07,13,08,51,17.60
2012,07,13,08,52,17.70
2012,07,13,08,53,17.70
2012,07,13,08,54,17.80
2012,07,13,08,55,17.80
2012,07,13,08,56,17.80
2012,07,13,08,57,17.80
2012,07,13,08,58,17.80
2012,07,13,08,59,17.80
2012,07,13,09,00,17.80
2012,07,13,09,01,17.80
2012,07,13,09,02,17.90
2012,07,13,09,03,17.90
2012,07,13,09,04,17.90
2012,07,13,09,05,18.00
2012,07,13,09,06,18.00
2012,07,13,09,07,18.10
2012,07,13,09,08,18.10
2012,07,13,09,09,18.20
2012,07,13,09,10,18.20
2012,07,13,09,11,18.10
2012,07,13,09,12,18.10
2012,07,13,09,13,18.20
2012,07,13,09,14,18.10
2012,07,13,09,15,18.20
2012,07,13,09,16,18.20
2012,07,13,09,17,18.20
2012,07,13,09,18,18.10
2012,07,13,09,19,18.00
2012,07,13,09,20,18.00
2012,07,13,09,21,17.90
2012,07,13,09,22,17.90
2012,07,13,09,23,17.90
2012,07,13,09,24,17.90
2012,07,13,09,25,17.90
2012,07,13,09,26,17.90
2012,07,13,09,27,17.90
2012,07,13,09,28,17.90
2012,07,13,09,29,17.90
2012,07,13,09,30,17.90
2012,07,13,09,31,17.90
2012,07,13,09,32,17.90
2012,07,13,09,33,17.80
2012,07,13,09,34,17.80
2012,07,13,09,35,17.80
2012,07,13,09,36,17.70
2012,07,13,09,37,17.70
2012,07,13,09,38,17.70
2012,07,13,09,39,17.70
2012,07,13,09,40,17.60
2012,07,13,09,41,17.60
2012,07,13,09,42,17.60
2012,07,13,09,43,17.50
2012,07,13,09,44,17.50
2012,07,13,09,45,17.30
2012,07,13,09,46,17.20
2012,07,13,09,47,17.10
2012,07,13,09,48,16.90
2012,07,13,09,49,16.80
2012,07,13,09,50,16.60
2012,07,13,09,51,16.40
2012,07,13,09,52,16.30
2012,07,13,09,53,16.20
2012,07,13,09,54,16.10
2012,07,13,09,55,16.00
2012,07,13,09,56,16.00
2012,07,13,09,57,15.90
2012,07,13,09,58,15.80
2012,07,13,09,59,15.80
2012,07,13,10,00,15.70
2012,07,13,10,01,15.70
2012,07,13,10,02,15.60
2012,07,13,10,03,15.60
2012,07,13,10,04,15.50
2012,07,13,10,05,15.50
2012,07,13,10,06,15.50
2012,07,13,10,07,15.50
2012,07,13,10,08,15.50
2012,07,13,10,09,15.40
2012,07,13,10,10,15.40
2012,07,13,10,11,15.30
2012,07,13,10,12,15.30
2012,07,13,10,13,15.20
2012,07,13,10,14,15.20
2012,07,13,10,15,15.20
2012,07,13,10,16,15.20
2012,07,13,10,17,15.20
2012,07,13,10,18,15.10
2012,07,13,10,19,15.20
2012,07,13,10,20,15.10
2012,07,13,10,21,15.10
2012,07,13,10,22,15.00
2012,07,13,10,23,15.00
2012,07,13,10,24,14.90
2012,07,13,10,25,14.90
2012,07,13,10,26,14.90
2012,07,13,10,27,14.80
2012,07,13,10,28,14.70
2012,07,13,10,29,14.70
2012,07,13,10,30,14.70
2012,07,13,10,31,14.70
2012,07,13,10,32,14.70
2012,07,13,10,33,14.70
2012,07,13,10,34,14.70
2012,07,13,10,35,14.70
2012,07,13,10,36,14.70
2012,07,13,10,37,14.70
2012,07,13,10,38,14.60
2012,07,13,10,39,14.60
2012,07,13,10,40,14.50
2012,07,13,10,41,14.50
2012,07,13,10,42,14.50
2012,07,13,10,43,14.50
2012,07,13,10,44,14.50
2012,07,13,10,45,14.50
2012,07,13,10,46,14.40
2012,07,13,10,47,14.40
2012,07,13,10,48,14.40
2012,07,13,10,49,14.40
2012,07,13,10,50,14.40
2012,07,13,10,51,14.50
2012,07,13,10,52,14.50
2012,07,13,10,53,14.50
2012,07,13,10,54,14.40
2012,07,13,10,55,14.40
2012,07,13,10,56,14.40
2012,07,13,10,57,14.50
2012,07,13,10,58,14.50
2012,07,13,10,59,14.40
2012,07,13,11,00,14.50
2012,07,13,11,01,14.50
2012,07,13,11,02,14.50
2012,07,13,11,03,14.50
2012,07,13,11,04,14.50
2012,07,13,11,05,14.60
2012,07,13,11,06,14.60
2012,07,13,11,07,14.60
2012,07,13,11,08,14.60
2012,07,13,11,09,14.70
2012,07,13,11,10,14.70
2012,07,13,11,11,14.70
2012,07,13,11,12,14.70
2012,07,13,11,13,14.70
2012,07,13,11,14,14.70
2012,07,13,11,15,14.70
2012,07,13,11,16,14.70
2012,07,13,11,17,14.70
2012,07,13,11,18,14.70
2012,07,13,11,19,14.70
2012,07,13,11,20,14.70
2012,07,13,11,21,14.70
2012,07,13,11,22,14.80
2012,07,13,11,23,14.80
2012,07,13,11,24,14.80
2012,07,13,11,25,14.80
2012,07,13,11,26,14.80
2012,07,13,11,27,14.90
2012,07,13,11,28,14.90
2012,07,13,11,29,14.90
2012,07,13,11,30,14.90
2012,07,13,11,31,14.90
2012,07,13,11,32,15.00
2012,07,13,11,33,15.10
2012,07,13,11,34,15.10
2012,07,13,11,35,15.10
2012,07,13,11,36,15.10
2012,07,13,11,37,15.20
2012,07,13,11,38,15.30
2012,07,13,11,39,15.30
2012,07,13,11,40,15.30
2012,07,13,11,41,15.30
2012,07,13,11,42,15.30
2012,07,13,11,43,15.30
2012,07,13,11,44,15.30
2012,07,13,11,45,15.40
2012,07,13,11,46,15.40
2012,07,13,11,47,15.40
2012,07,13,11,48,15.50
2012,07,13,11,49,15.50
2012,07,13,11,50,15.60
2012,07,13,11,51,15.60
2012,07,13,11,52,15.60
2012,07,13,11,53,15.70
2012,07,13,11,54,15.70
2012,07,13,11,55,15.80
2012,07,13,11,56,15.80
2012,07,13,11,57,15.80
2012,07,13,11,58,15.80
2012,07,13,11,59,15.90
2012,07,13,12,00,15.90
2012,07,13,12,01,15.90
2012,07,13,12,02,15.90
2012,07,13,12,03,15.90
2012,07,13,12,04,15.90
2012,07,13,12,05,15.90
2012,07,13,12,06,15.90
2012,07,13,12,07,16.00
2012,07,13,12,08,16.00
2012,07,13,12,09,16.10
2012,07,13,12,10,16.10
2012,07,13,12,11,16.20
2012,07,13,12,12,16.20
2012,07,13,12,13,16.20
2012,07,13,12,14,16.20
2012,07,13,12,15,16.20
2012,07,13,12,16,16.20
2012,07,13,12,17,16.20
2012,07,13,12,18,16.10
2012,07,13,12,19,16.10
2012,07,13,12,20,16.10
2012,07,13,12,21,16.10
2012,07,13,12,22,16.10
2012,07,13,12,23,16.00
2012,07,13,12,24,16.00
2012,07,13,12,25,16.00
2012,07,13,12,26,15.90
2012,07,13,12,27,15.90
2012,07,13,12,28,15.90
2012,07,13,12,29,15.90
2012,07,13,12,30,15.90
2012,07,13,12,31,15.80
2012,07,13,12,32,15.80
2012,07,13,12,33,15.80
2012,07,13,12,34,15.90
2012,07,13,12,35,15.90
2012,07,13,12,36,15.90
2012,07,13,12,37,15.90
2012,07,13,12,38,15.90
2012,07,13,12,39,15.90
2012,07,13,12,40,15.90
2012,07,13,12,41,15.90
2012,07,13,12,42,15.90
2012,07,13,12,43,16.00
2012,07,13,12,44,16.00
2012,07,13,12,45,16.10
2012,07,13,12,46,16.10
2012,07,13,12,47,16.10
2012,07,13,12,48,16.10
2012,07,13,12,49,16.20
2012,07,13,12,50,16.20
2012,07,13,12,51,16.20
2012,07,13,12,52,16.20
2012,07,13,12,53,16.20
2012,07,13,12,54,16.20
2012,07,13,12,55,16.30
2012,07,13,12,56,16.30
2012,07,13,12,57,16.40
2012,07,13,12,58,16.50
2012,07,13,12,59,16.50
2012,07,13,13,00,16.60
2012,07,13,13,01,16.60
2012,07,13,13,02,16.70
2012,07,13,13,03,16.80
2012,07,13,13,04,16.80
2012,07,13,13,05,16.90
2012,07,13,13,06,17.00
2012,07,13,13,07,17.10
2012,07,13,13,08,17.10
2012,07,13,13,09,17.10
2012,07,13,13,10,17.10
2012,07,13,13,11,17.20
2012,07,13,13,12,17.20
2012,07,13,13,13,17.30
2012,07,13,13,14,17.40
2012,07,13,13,15,17.50
2012,07,13,13,16,17.60
2012,07,13,13,17,17.60
2012,07,13,13,18,17.70
2012,07,13,13,19,17.80
2012,07,13,13,20,17.90
2012,07,13,13,21,18.00
2012,07,13,13,22,18.00
2012,07,13,13,23,18.10
2012,07,13,13,24,18.10
2012,07,13,13,25,18.10
2012,07,13,13,26,18.10
2012,07,13,13,27,18.10
2012,07,13,13,28,18.20
2012,07,13,13,29,18.30
2012,07,13,13,30,18.40
2012,07,13,13,31,18.50
2012,07,13,13,32,18.60
2012,07,13,13,33,18.70
2012,07,13,13,34,18.80
2012,07,13,13,35,19.00
2012,07,13,13,36,19.20
2012,07,13,13,37,19.30
2012,07,13,13,38,19.40
2012,07,13,13,39,19.50
2012,07,13,13,40,19.50
2012,07,13,13,41,19.60
2012,07,13,13,42,19.60
2012,07,13,13,43,19.60
2012,07,13,13,44,19.70
2012,07,13,13,45,19.70
2012,07,13,13,46,19.80
2012,07,13,13,47,19.90
2012,07,13,13,48,20.00
2012,07,13,13,49,20.20
2012,07,13,13,50,20.30
2012,07,13,13,51,20.30
2012,07,13,13,52,20.30
2012,07,13,13,53,20.40
2012,07,13,13,54,20.40
2012,07,13,13,55,20.40
2012,07,13,13,56,20.50
2012,07,13,13,57,20.50
2012,07,13,13,58,20.50
2012,07,13,13,59,20.50
2012,07,13,14,00,20.40
2012,07,13,14,01,20.20
2012,07,13,14,02,20.00
2012,07,13,14,03,19.70
2012,07,13,14,04,19.50
2012,07,13,14,05,19.20
2012,07,13,14,06,18.90
2012,07,13,14,07,18.50
2012,07,13,14,08,18.20
2012,07,13,14,09,18.00
2012,07,13,14,10,17.80
2012,07,13,14,11,17.60
2012,07,13,14,12,17.40
2012,07,13,14,13,17.20
2012,07,13,14,14,17.10
2012,07,13,14,15,17.00
2012,07,13,14,16,17.00
2012,07,13,14,17,16.90
2012,07,13,14,18,16.90
2012,07,13,14,19,16.80
2012,07,13,14,20,16.80
2012,07,13,14,21,16.80
2012,07,13,14,22,16.70
2012,07,13,14,23,16.70
2012,07,13,14,24,16.60
2012,07,13,14,25,16.50
2012,07,13,14,26,16.40
2012,07,13,14,27,16.30
2012,07,13,14,28,16.30
2012,07,13,14,29,16.20
2012,07,13,14,30,16.20
2012,07,13,14,31,16.20
2012,07,13,14,32,16.20
2012,07,13,14,33,16.30
2012,07,13,14,34,16.30
2012,07,13,14,35,16.20
2012,07,13,14,36,16.20
2012,07,13,14,37,16.30
2012,07,13,14,38,16.40
2012,07,13,14,39,16.50
2012,07,13,14,40,16.50
2012,07,13,14,41,16.60
2012,07,13,14,42,16.70
2012,07,13,14,43,16.80
2012,07,13,14,44,16.80
2012,07,13,14,45,16.80
2012,07,13,14,46,16.90
2012,07,13,14,47,16.90
2012,07,13,14,48,17.00
2012,07,13,14,49,17.10
2012,07,13,14,50,17.10
2012,07,13,14,51,17.20
2012,07,13,14,52,17.20
2012,07,13,14,53,17.20
2012,07,13,14,54,17.20
2012,07,13,14,55,17.30
2012,07,13,14,56,17.30
2012,07,13,14,57,17.40
2012,07,13,14,58,17.50
2012,07,13,14,59,17.60
2012,07,13,15,00,17.70
2012,07,13,15,01,17.70
2012,07,13,15,02,17.70
2012,07,13,15,03,17.70
2012,07,13,15,04,17.80
2012,07,13,15,05,17.90
2012,07,13,15,06,17.90
2012,07,13,15,07,18.00
2012,07,13,15,08,17.90
2012,07,13,15,09,17.90
2012,07,13,15,10,17.90
2012,07,13,15,11,17.90
2012,07,13,15,12,17.90
2012,07,13,15,13,18.00
2012,07,13,15,14,18.00
2012,07,13,15,15,18.10
2012,07,13,15,16,18.20
2012,07,13,15,17,18.30
2012,07,13,15,18,18.50
2012,07,13,15,19,18.60
2012,07,13,15,20,18.70
2012,07,13,15,21,18.70
2012,07,13,15,22,18.80
2012,07,13,15,23,18.90
2012,07,13,15,24,19.00
2012,07,13,15,25,19.00
2012,07,13,15,26,19.10
2012,07,13,15,27,19.10
2012,07,13,15,28,19.20
2012,07,13,15,29,19.20
2012,07,13,15,30,19.30
2012,07,13,15,31,19.30
2012,07,13,15,32,19.40
2012,07,13,15,33,19.50
2012,07,13,15,34,19.50
2012,07,13,15,35,19.60
2012,07,13,15,36,19.60
2012,07,13,15,37,19.60
2012,07,13,15,38,19.70
2012,07,13,15,39,19.70
2012,07,13,15,40,19.70
2012,07,13,15,41,19.70
2012,07,13,15,42,19.80
2012,07,13,15,43,19.90
2012,07,13,15,44,19.90
2012,07,13,15,45,20.00
2012,07,13,15,46,20.10
2012,07,13,15,47,20.10
2012,07,13,15,48,20.20
2012,07,13,15,49,20.20
2012,07,13,15,50,20.30
2012,07,13,15,51,20.30
2012,07,13,15,52,20.30
2012,07,13,15,53,20.40
2012,07,13,15,54,20.40
2012,07,13,15,55,20.50
2012,07,13,15,56,20.50
2012,07,13,15,57,20.60
2012,07,13,15,58,20.80
2012,07,13,15,59,20.90
2012,07,13,16,00,21.00
2012,07,13,16,01,21.10
2012,07,13,16,02,21.20
2012,07,13,16,03,21.30
2012,07,13,16,04,21.40
2012,07,13,16,05,21.40
2012,07,13,16,06,21.50
2012,07,13,16,07,21.60
2012,07,13,16,08,21.70
2012,07,13,16,09,21.70
2012,07,13,16,10,21.70
2012,07,13,16,11,21.70
2012,07,13,16,12,21.80
2012,07,13,16,13,21.80
2012,07,13,16,14,21.80
2012,07,13,16,15,21.80
2012,07,13,16,16,21.70
2012,07,13,16,17,21.70
2012,07,13,16,18,21.70
2012,07,13,16,19,21.60
2012,07,13,16,20,21.60
2012,07,13,16,21,21.50
2012,07,13,16,22,21.50
2012,07,13,16,23,21.50
2012,07,13,16,24,21.50
2012,07,13,16,25,21.50
2012,07,13,16,26,21.50
2012,07,13,16,27,21.40
2012,07,13,16,28,21.40
2012,07,13,16,29,21.40
2012,07,13,16,30,21.30
2012,07,13,16,31,21.30
2012,07,13,16,32,21.20
2012,07,13,16,33,21.10
2012,07,13,16,34,21.00
2012,07,13,16,35,20.90
2012,07,13,16,36,20.70
2012,07,13,16,37,20.60
2012,07,13,16,38,20.40
2012,07,13,16,39,20.30
2012,07,13,16,40,20.10
2012,07,13,16,41,20.00
2012,07,13,16,42,19.90
2012,07,13,16,43,19.80
2012,07,13,16,44,19.70
2012,07,13,16,45,19.60
2012,07,13,16,46,19.50
2012,07,13,16,47,19.40
2012,07,13,16,48,19.30
2012,07,13,16,49,19.30
2012,07,13,16,50,19.30
2012,07,13,16,51,19.40
2012,07,13,16,52,19.50
2012,07,13,16,53,19.50
2012,07,13,16,54,19.60
2012,07,13,16,55,19.50
2012,07,13,16,56,19.50
2012,07,13,16,57,19.40
2012,07,13,16,58,19.40
2012,07,13,16,59,19.30
2012,07,13,17,00,19.20
2012,07,13,17,01,19.10
2012,07,13,17,02,19.10
2012,07,13,17,03,19.00
2012,07,13,17,04,18.90
2012,07,13,17,05,18.80
2012,07,13,17,06,18.70
2012,07,13,17,07,18.60
2012,07,13,17,08,18.40
2012,07,13,17,09,18.30
2012,07,13,17,10,18.30
2012,07,13,17,11,18.20
2012,07,13,17,12,18.20
2012,07,13,17,13,18.20
2012,07,13,17,14,18.20
2012,07,13,17,15,18.30
2012,07,13,17,16,18.30
2012,07,13,17,17,18.30
2012,07,13,17,18,18.40
2012,07,13,17,19,18.40
2012,07,13,17,20,18.40
2012,07,13,17,21,18.50
2012,07,13,17,22,18.50
2012,07,13,17,23,18.50
2012,07,13,17,24,18.50
2012,07,13,17,25,18.50
2012,07,13,17,26,18.50
2012,07,13,17,27,18.50
2012,07,13,17,28,18.60
2012,07,13,17,29,18.60
2012,07,13,17,30,18.60
2012,07,13,17,31,18.60
2012,07,13,17,32,18.60
2012,07,13,17,33,18.60
2012,07,13,17,34,18.60
2012,07,13,17,35,18.70
2012,07,13,17,36,18.70
2012,07,13,17,37,18.70
2012,07,13,17,38,18.70
2012,07,13,17,39,18.70
2012,07,13,17,40,18.60
2012,07,13,17,41,18.60
2012,07,13,17,42,18.60
2012,07,13,17,43,18.60
2012,07,13,17,44,18.60
2012,07,13,17,45,18.60
2012,07,13,17,46,18.50
2012,07,13,17,47,18.50
2012,07,13,17,48,18.50
2012,07,13,17,49,18.50
2012,07,13,17,50,18.50
2012,07,13,17,51,18.60
2012,07,13,17,52,18.60
2012,07,13,17,53,18.60
2012,07,13,17,54,18.60
2012,07,13,17,55,18.70
2012,07,13,17,56,18.70
2012,07,13,17,57,18.70
2012,07,13,17,58,18.80
2012,07,13,17,59,18.80
2012,07,13,18,00,18.80
2012,07,13,18,01,18.80
2012,07,13,18,02,18.90
2012,07,13,18,03,18.80
2012,07,13,18,04,18.80
2012,07,13,18,05,18.80
2012,07,13,18,06,18.80
2012,07,13,18,07,18.80
2012,07,13,18,08,18.80
2012,07,13,18,09,18.80
2012,07,13,18,10,18.90
2012,07,13,18,11,18.90
2012,07,13,18,12,18.90
2012,07,13,18,13,18.90
2012,07,13,18,14,19.00
2012,07,13,18,15,19.00
2012,07,13,18,16,19.10
2012,07,13,18,17,19.10
2012,07,13,18,18,19.10
2012,07,13,18,19,19.20
2012,07,13,18,20,19.30
2012,07,13,18,21,19.30
2012,07,13,18,22,19.30
2012,07,13,18,23,19.40
2012,07,13,18,24,19.40
2012,07,13,18,25,19.50
2012,07,13,18,26,19.50
2012,07,13,18,27,19.60
2012,07,13,18,28,19.70
2012,07,13,18,29,19.80
2012,07,13,18,30,19.80
2012,07,13,18,31,19.90
2012,07,13,18,32,19.90
2012,07,13,18,33,20.00
2012,07,13,18,34,20.00
2012,07,13,18,35,20.10
2012,07,13,18,36,20.10
2012,07,13,18,37,20.20
2012,07,13,18,38,20.30
2012,07,13,18,39,20.40
2012,07,13,18,40,20.50
2012,07,13,18,41,20.50
2012,07,13,18,42,20.60
2012,07,13,18,43,20.60
2012,07,13,18,44,20.60
2012,07,13,18,45,20.70
2012,07,13,18,46,20.70
2012,07,13,18,47,20.80
2012,07,13,18,48,20.90
2012,07,13,18,49,20.90
2012,07,13,18,50,20.90
2012,07,13,18,51,20.90
2012,07,13,18,52,20.90
2012,07,13,18,53,20.80
2012,07,13,18,54,20.80
2012,07,13,18,55,20.80
2012,07,13,18,56,20.80
2012,07,13,18,57,20.80
2012,07,13,18,58,20.80
2012,07,13,18,59,20.70
2012,07,13,19,00,20.70
2012,07,13,19,01,20.70
2012,07,13,19,02,20.70
2012,07,13,19,03,20.60
2012,07,13,19,04,20.60
2012,07,13,19,05,20.60
2012,07,13,19,06,20.60
2012,07,13,19,07,20.60
2012,07,13,19,08,20.60
2012,07,13,19,09,20.60
2012,07,13,19,10,20.60
2012,07,13,19,11,20.60
2012,07,13,19,12,20.60
2012,07,13,19,13,20.60
2012,07,13,19,14,20.60
2012,07,13,19,15,20.60
2012,07,13,19,16,20.60
2012,07,13,19,17,20.60
2012,07,13,19,18,20.60
2012,07,13,19,19,20.60
2012,07,13,19,20,20.60
2012,07,13,19,21,20.50
2012,07,13,19,22,20.50
2012,07,13,19,23,20.30
2012,07,13,19,24,20.20
2012,07,13,19,25,20.10
2012,07,13,19,26,20.00
2012,07,13,19,27,19.90
2012,07,13,19,28,19.80
2012,07,13,19,29,19.60
2012,07,13,19,30,19.50
2012,07,13,19,31,19.30
2012,07,13,19,32,19.30
2012,07,13,19,33,19.20
2012,07,13,19,34,19.10
2012,07,13,19,35,19.10
2012,07,13,19,36,19.10
2012,07,13,19,37,19.00
2012,07,13,19,38,19.00
2012,07,13,19,39,19.00
2012,07,13,19,40,18.90
2012,07,13,19,41,18.90
2012,07,13,19,42,18.90
2012,07,13,19,43,18.90
2012,07,13,19,44,18.90
2012,07,13,19,45,18.90
2012,07,13,19,46,18.80
2012,07,13,19,47,18.80
2012,07,13,19,48,18.80
2012,07,13,19,49,18.70
2012,07,13,19,50,18.60
2012,07,13,19,51,18.60
2012,07,13,19,52,18.60
2012,07,13,19,53,18.50
2012,07,13,19,54,18.50
2012,07,13,19,55,18.40
2012,07,13,19,56,18.40
2012,07,13,19,57,18.40
2012,07,13,19,58,18.40
2012,07,13,19,59,18.40
2012,07,13,20,00,18.40
2012,07,13,20,01,18.40
2012,07,13,20,02,18.40
2012,07,13,20,03,18.20
2012,07,13,20,04,17.80
2012,07,13,20,05,17.60
2012,07,13,20,06,17.40
2012,07,13,20,07,17.20
2012,07,13,20,08,17.20
2012,07,13,20,09,17.10
2012,07,13,20,10,17.10
2012,07,13,20,11,17.10
2012,07,13,20,12,17.00
2012,07,13,20,13,17.00
2012,07,13,20,14,17.00
2012,07,13,20,15,17.00
2012,07,13,20,16,17.10
2012,07,13,20,17,17.10
2012,07,13,20,18,17.10
2012,07,13,20,19,17.20
2012,07,13,20,20,17.20
2012,07,13,20,21,17.20
2012,07,13,20,22,17.20
2012,07,13,20,23,17.30
2012,07,13,20,24,17.30
2012,07,13,20,25,17.30
2012,07,13,20,26,17.30
2012,07,13,20,27,17.30
2012,07,13,20,28,17.30
2012,07,13,20,29,17.10
2012,07,13,20,30,16.70
2012,07,13,20,31,16.40
2012,07,13,20,32,16.30
2012,07,13,20,33,16.20
2012,07,13,20,34,16.30
2012,07,13,20,35,16.30
2012,07,13,20,36,16.40
2012,07,13,20,37,16.50
2012,07,13,20,38,16.50
2012,07,13,20,39,16.60
2012,07,13,20,40,16.70
2012,07,13,20,41,16.80
2012,07,13,20,42,16.90
2012,07,13,20,43,17.00
2012,07,13,20,44,17.10
2012,07,13,20,45,17.10
2012,07,13,20,46,17.20
2012,07,13,20,47,17.20
2012,07,13,20,48,17.20
2012,07,13,20,49,17.20
2012,07,13,20,50,17.20
2012,07,13,20,51,17.10
2012,07,13,20,52,17.10
2012,07,13,20,53,17.00
2012,07,13,20,54,17.00
2012,07,13,20,55,16.90
2012,07,13,20,56,16.90
2012,07,13,20,57,16.90
2012,07,13,20,58,16.90
2012,07,13,20,59,16.80
2012,07,13,21,00,16.80
2012,07,13,21,01,16.80
2012,07,13,21,02,16.80
2012,07,13,21,03,16.80
2012,07,13,21,04,16.90
2012,07,13,21,05,16.90
2012,07,13,21,06,16.90
2012,07,13,21,07,16.90
2012,07,13,21,08,16.80
2012,07,13,21,09,16.80
2012,07,13,21,10,16.80
2012,07,13,21,11,16.80
2012,07,13,21,12,16.80
2012,07,13,21,13,16.80
2012,07,13,21,14,16.70
2012,07,13,21,15,16.70
2012,07,13,21,16,16.70
2012,07,13,21,17,16.70
2012,07,13,21,18,16.70
2012,07,13,21,19,16.60
2012,07,13,21,20,16.60
2012,07,13,21,21,16.60
2012,07,13,21,22,16.60
2012,07,13,21,23,16.60
2012,07,13,21,24,16.60
2012,07,13,21,25,16.60
2012,07,13,21,26,16.60
2012,07,13,21,27,16.60
2012,07,13,21,28,16.60
2012,07,13,21,29,16.60
2012,07,13,21,30,16.60
2012,07,13,21,31,16.60
2012,07,13,21,32,16.60
2012,07,13,21,33,16.60
2012,07,13,21,34,16.50
2012,07,13,21,35,16.50
2012,07,13,21,36,16.40
2012,07,13,21,37,16.40
2012,07,13,21,38,16.40
2012,07,13,21,39,16.30
2012,07,13,21,40,16.30
2012,07,13,21,41,16.30
2012,07,13,21,42,16.20
2012,07,13,21,43,16.10
2012,07,13,21,44,16.00
2012,07,13,21,45,15.90
2012,07,13,21,46,15.80
2012,07,13,21,47,15.60
2012,07,13,21,48,15.50
2012,07,13,21,49,15.30
2012,07,13,21,50,15.20
2012,07,13,21,51,15.10
2012,07,13,21,52,15.00
2012,07,13,21,53,14.80
2012,07,13,21,54,14.80
2012,07,13,21,55,14.70
2012,07,13,21,56,14.60
2012,07,13,21,57,14.60
2012,07,13,21,58,14.50
2012,07,13,21,59,14.40
2012,07,13,22,00,14.40
2012,07,13,22,01,14.30
2012,07,13,22,02,14.30
2012,07,13,22,03,14.20
2012,07,13,22,04,14.20
2012,07,13,22,05,14.20
2012,07,13,22,06,14.20
2012,07,13,22,07,14.20
2012,07,13,22,08,14.20
2012,07,13,22,09,14.20
2012,07,13,22,10,14.20
2012,07,13,22,11,14.20
2012,07,13,22,12,14.20
2012,07,13,22,13,14.20
